Location: Newark
(48.3453°N, 0.5589°E)
Time: 11:25:51
(UTC+00:00)

A-11 Canister half - Pass Details

Date: 08 December 2019
Orbit: 1516 x 1683 km, 47.2° (Epoch: 19 January)

Event Time Altitude Azimuth Distance (km) Brightness Sun altitude
Rises 14:53:51 0° 261° (W) 4,802 12.5 7.9°
Reaches altitude 10° 14:56:54 10° 261° (W) 3,839 12.1 7.5°
Maximum altitude 15:06:47 84° 175° (S) 1,666 9.4 6.4°
Drops below altitude 10° 15:16:57 10° 89° (E) 3,942 10.7 5.2°
Sets 15:20:08 0° 89° (E) 4,936 11.2 4.8°
